Location: São Paulo
(23.5507°S, 46.6334°W)
Time: 08:16:42
(UTC-03:00)

Hubble Space Telescope - Pass Details

Date: 24 July 2021
Orbit: 535 x 539 km, 28.5° (Epoch: 15 September)

Event Time Altitude Azimuth Distance (km) Brightness Sun altitude
Exits shadow 05:34:11 - 324° (NW) 2,487 4.0 -16.3°
Reaches altitude 10° 05:36:20 10° 338° (NNW) 1,780 3.3 -15.8°
Maximum altitude 05:39:28 21° 28° (NNE) 1,233 3.1 -15.1°
Drops below altitude 10° 05:42:38 10° 78° (ENE) 1,791 4.9 -14.5°
Sets 05:45:19 0° 94° (E) 2,686 5.8 -13.9°
